Location: Poughquag
(41.6090°N, 73.6820°W)
Time: 06:00:09
(UTC-05:00)

AO-109 - Visible Passes

Search period start: 28 November 2023 00:00
Search period end: 08 December 2023 00:00
Orbit: 392 x 423 km, 60.7° (Epoch: 27 November)

Date Brightness Start Highest point End Pass type
(mag) Time Alt. Az. Time Alt. Az. Time Alt. Az.
28 Nov ? 06:14:43 10° S 06:17:35 32° ESE 06:20:29 10° ENE visible
29 Nov ? 05:25:28 10° SSE 05:27:15 14° ESE 05:29:03 10° E visible
30 Nov ? 06:08:46 10° SW 06:11:56 90° S 06:15:08 10° NE visible
01 Dec ? 05:18:18 10° S 05:21:13 34° ESE 05:24:09 10° ENE visible
02 Dec ? 04:30:03 14° SE 04:30:30 15° ESE 04:32:22 10° E visible
02 Dec ? 06:02:56 10° WSW 06:05:54 35° NW 06:08:52 10° NNE visible
03 Dec ? 05:15:01 76° NNE 05:15:01 76° NNE 05:18:00 10° NE visible
04 Dec ? 04:26:32 11° ENE 04:26:32 11° ENE 04:26:39 10° NE visible
04 Dec ? 05:59:17 18° NW 05:59:28 18° NW 06:01:46 10° N visible
05 Dec ? 05:10:22 14° NNE 05:10:22 14° NNE 05:10:58 10° NNE visible
